LogoCoinalyze
    Ad-Free Version ホーム マーケット一覧 資金調達率一覧
    先物データ
    • 集計データ (コイン一覧)
    • 個別チャート
    • 全体チャート
    アラート
    TA
    Bitcoin Ethereum BNB Ripple Tron ZCash Dogecoin Monero UNUS SED LEO Chainlink Cardano Stellar Lumens Bitcoin Cash Litecoin Hedera Cronos Polkadot Ethereum Classic Algorand Cosmos Quant VeChain Dash Bitcoin SV BitTorrent Terra Decred Tezos Iota The Graph THETA Decentraland NEO Chiliz MultiversX Basic Attention Token Golem Horizen Qtum 0x DigiByte Beam FTX Token RIF Token Holo FUNToken Ontology Zilliqa Nano aelf Siacoin Enjin Coin Ravencoin Mask Network Verge Status WINk Waves IoTeX iExec RLC Power Ledger Steem Kyber Network Crystal Lisk Ark WOO Network Ardor IOST WAX Icon Storj Wanchain Loopring Bitcoin Diamond AdEx Bitcoin Gold Augur OmiseGO NEM MonaCoin BitShares Ren V Systems Komodo Nuls Mithril SOLVE Maker Aion EOS Nebulas HedgeTrade Bread Fetch.ai TomoChain Polygon Fantom Waltonchain GXChain Bytom Metaverse ETP MaidSafeCoin QASH
    注文する:
    その他
    • API
    • ローソク足パターン
    • 寄付する
    • お問い合わせ
    • サイトマップ
    • Privacy Policy
    • Disclaimer
    • Theme:
    日本語
    • English
    • Français
    • Русский
    • Deutsch
    • Türkçe
    • Nederlands
    • Português (BR)
    • Español
    • 한국어
    • 简体中文
     
    ログイン / サインアップ
    Markets/ Pepe/ PEPE to USDC/ PEPEUSDC Bybit
    Trades
    WL
    チャット
    統計
    ニュース
    ⦷
    AAA
    0.000003453 2462378.00000000 18:29:02
    0.000003449 2462378.00000000 18:28:02
    0.000003450 30000000.00000000 18:28:02
    0.000003450 319440.00000000 18:28:02
    0.000003451 5829231.00000000 18:28:02
    0.000003474 2015411.00000000 18:08:45
    0.000003480 10000000.00000000 18:08:06
    0.000003480 20000000.00000000 18:08:06
    0.000003510 2006414.00000000 17:34:24
    0.000003503 57093919.00000000 17:27:48
    0.000003483 287108.00000000 17:09:00
    0.000003494 21339984.00000000 17:01:24
    0.000003493 21442404.00000000 16:58:26
    0.000003486 21445954.00000000 16:47:54
    0.000003499 5615042.00000000 16:47:38
    0.000003486 21462096.00000000 16:47:36
    0.000003474 2015362.00000000 16:36:54
    0.000003478 491605.00000000 16:36:10
    0.000003479 103381017.00000000 16:22:42
    0.000003480 10000000.00000000 16:22:02
    0.000003480 328453.00000000 16:22:02
    0.000003520 328124.00000000 15:45:00
    0.000003480 328453.00000000 15:10:53
    0.000003481 7116209.00000000 15:08:21
    0.000003510 1675927.00000000 15:00:36
    0.000003510 1994790.00000000 15:00:36
    0.000003523 14192449.00000000 14:56:07
    0.000003546 1985885.00000000 14:07:38
    0.000003523 491113.00000000 13:52:06
    0.000003520 328124.00000000 13:51:27
    0.000003505 26000000.00000000 13:49:51
    0.000003510 10000000.00000000 13:31:13
    0.000003510 2006365.00000000 13:31:13
    0.000003474 2015312.00000000 13:06:49
    0.000003477 7192174.00000000 13:06:48
    0.000003479 7440377.00000000 13:06:48
    0.000003481 7190106.00000000 13:06:48
    0.000003480 328453.00000000 13:06:48
    0.000003510 7401399.00000000 11:56:21
    0.000003510 21088629.00000000 11:56:21
    0.000003520 5353694.00000000 11:54:58
    0.000003520 328124.00000000 11:54:58
    0.000003510 16775698.00000000 11:42:26
    0.000003510 2006316.00000000 11:42:26
    0.000003474 2015263.00000000 08:29:37
    0.000003478 491605.00000000 08:27:02
    0.000003483 7046197.00000000 08:27:02
    0.000003480 381261.00000000 08:26:46
    0.000003480 328453.00000000 08:26:46
    0.000003488 2462378.00000000 08:19:02
    0.000003498 68472946.00000000 08:17:24
    0.000003499 2462378.00000000 08:17:24
    0.000003508 69870353.00000000 08:08:48
    0.000003510 319440.00000000 08:08:48
    0.000003510 1994741.00000000 08:08:48
    0.000003533 5662514.00000000 08:03:12
    0.000003520 328453.00000000 07:41:20
    0.000003544 400000.00000000 07:20:31
    0.000003545 216101000.00000000 07:19:36
    0.000003545 21164596.00000000 07:16:05
    0.000003550 387250.00000000 06:05:34
    0.000003560 17348643.00000000 05:37:47
    0.000003560 328124.00000000 05:37:47
    0.000003556 6168443.00000000 05:35:14
    0.000003556 275263.00000000 05:35:10
    0.000003556 7022471.00000000 05:35:10
    0.000003542 3804209.00000000 05:33:15
    0.000003524 333198.00000000 05:11:34
    0.000003520 328453.00000000 04:48:38
    0.000003523 491605.00000000 04:46:50
    0.000003538 66445960.00000000 04:46:30
    0.000003546 1974730.00000000 04:40:54
    0.000003549 64767786.00000000 04:40:08
    0.000003549 176353939.00000000 04:40:08
    0.000003549 176055371.00000000 04:40:08
    0.000003549 182822904.00000000 04:40:08
    0.000003548 175768548.00000000 04:39:50
    0.000003550 10000000.00000000 04:37:18
    0.000003550 5635390.00000000 04:37:18
    0.000003548 25355452.00000000 04:34:45
    0.000003550 13524936.00000000 04:34:45
    0.000003561 6698079.00000000 03:54:13
    0.000003582 1965915.00000000 03:36:12
    0.000003564 14064697.00000000 03:19:58
    0.000003548 20270270.00000000 03:19:05
    0.000003564 14080540.00000000 03:12:11
    0.000003564 14080540.00000000 03:12:10
    0.000003570 20379041.00000000 03:11:35
    0.000003564 14084507.00000000 03:11:30
    0.000003556 14088475.00000000 03:10:51
    0.000003564 14088475.00000000 03:09:51
    0.000003564 14088475.00000000 03:08:22
    0.000003564 14088475.00000000 03:08:21
    0.000003564 14088475.00000000 03:08:19
    0.000003564 14088475.00000000 03:08:18
    0.000003550 175768548.00000000 02:39:44
    0.000003550 175768548.00000000 02:39:41
    0.000003560 729.00000000 01:44:03
    0.000003560 1964351.00000000 01:43:39
    0.000003546 1974682.00000000 01:17:33
    ログアウト
    AAA
    ヘルプ
    🙂 🤣 😎 🤗 😛 😉 😜 🤑 🤔 😑 😴 😕 🙃 😲 😇 🙁 😢 😬 😟 😠 🕺 🏃 💪 ✌ 👌 👍 👎 👏 👋 🤝 🍺 🍻 🐋 🐟 🦈 🗽 🚄 ✈ 🛑 🚀 🏦 🌚 ⭐ 🌞 ⚡ 🏆 💰 💲 🔨 ❓ ❗ 💯 🔶 🏁
    ☺
    ログイン または サインアップ してチャット
    24時間
    変化
    -4.08%
    出来高
    3,025,563,813
    最高値
    0.000003600
    最安値
    0.000003449
    7日間
    変化
    -14.74%
    出来高
    42,015,296,021
    最高値
    0.000004310
    最安値
    0.000003366
    30日間
    変化
    +23.85%
    出来高
    245,946,082,001
    最高値
    0.000004564
    最安値
    0.000002538
    Pepe price rallies 25% as whale demand and futures interest surge
    Key takeaways Pepe has gained 25% this week, including a combined 22% advance over the previous two days. Seven whale transactions worth more than $1 million each occurred Thursday, the highest...
    coinjournal.net
    Aug 21, 2026 08:41
    PEPE Supply on Exchanges Just Took a Massive Hit – What’s Next?
    A drop in PEPE exchange balances has added to bullish expectations despite muted trader interest.
    cryptopotato.com
    Aug 6, 2026 20:02
    PEPE Exchange Outflows Hit Nearly 2-Year High as Whales Accumulate
    Pepe (PEPE) recorded its largest single-day exchange outflow since November 2024, with 4.54 trillion tokens leaving trading platforms, signaling that holders are moving supply away from immediate...
    beincrypto.com
    Aug 6, 2026 04:57
    Meme Coin Based on White House Shooter Conspiracy Rallies 320%
    $HENRY surged 300% after a 2023 Pepe tweet appeared to name the White House shooter, fueling a viral time-travel meme. The post Meme Coin Based on White House Shooter Conspiracy Rallies 320%...
    beincrypto.com
    Apr 27, 2026 16:11
    PEPE surges 4% as market sentiment improves, eyes Key resistance breakout
    Key takeaways Pepe extends gains on Wednesday, stretching its rally from the 50-day EMA. Derivatives data show heightened retail activity as risk-on sentiment returns to the market. Pepe (PEPE) is...
    coinjournal.net
    Apr 22, 2026 11:44
    Why The PEPE Price Could Stage A 55X Rally To Reach New $0.0001 ATH
    The PEPE price has now started to edge back into bullish conversations after the recent inflows into the crypto market. The last time PEPE’s weekly chart printed the kind of structure now...
    newsbtc.com
    Apr 21, 2026 15:30
    Pepe (PEPE) surges 9%, drawing interest from whales
    Key takeaways PEPE is up 9% in the last 24 hours, making it one of the best performers among the top 50 cryptocurrencies by market cap. The rally comes amid renewed interest from whales and retail...
    coinjournal.net
    Apr 16, 2026 07:40
    Murad Says SPX6900 (SPX) Is Primed for a Rally — Is He Right This Time?
    Crypto influencer Murad Mahmudov claims SPX6900 (SPX) is stabilizing at the same market cap level where Dogecoin (DOGE) and Pepe (PEPE) consolidated before their explosive rallies. The...
    beincrypto.com
    Apr 5, 2026 21:36
    The Shiba Inu Of This Cycle: Analyst Shares Why It Is Better To Buy PEPE Now
    In the bull market cycle of 2021-2022, the Shiba Inu meme coin made waves in a way that changed the face of meme coins forever. This came after Dogecoin’s initial 36,000% rally, and Shiba Inu...
    newsbtc.com
    Apr 4, 2026 07:30
    PEPE Explodes by 18% Amid Altcoin Rally, BTC Tapped $74K: Market Watch
    The frog-themed meme coin is today's biggest gainer, followed by TAO, DOT, and BONK.
    cryptopotato.com
    Mar 16, 2026 10:56
    Should PEPE traders brace for volatility as short squeeze potential builds?
    The memecoin market has seen its collective market capitalization drop by 48% over the past year, and 6.9% over the past month, according to CoinMarketCap. According to Glassnode, the memecoin...
    ambcrypto.com
    Mar 7, 2026 18:00
    チャットでコマンドを入力するだけです。 nick1を実際のニックネームに置き換えてください
    • /ignore nick1 チャットユーザーを無視する
    • /unignore nick1 チャットユーザーを無視しない
    • /ignorelist 無視したチャットユーザーを表示する